Current weather by "City, St" or "zip code"  
 

Current Conditions: Columbus Air Force Base, MS

Fair


74.0 F

Last Updated on May 21 2022, 2:56 am CDT
Humidity: 83%
Wind Speed: S 10.4 mph
Barometer 29.93 in
Dewpoint: 68.2 F
Visibility: 10.00 mi
Precip: --
Heat Index: NA
Wind Chill: NA
Current conditions at:

Columbus Air Force Base, MS (KCBM)

Lat: 33.65 Lon: 88.45

Local Radar Image active severe weather and emergency alerts image image weather storm and storm spotter reports image weather observation monitoring service image
Local
Radar
Active
Alerts
Storm Reports Obs
Monitoring

Sign-up For Email & Text Message Weather Alert Notification Services



Advertise Here

Observation History for Columbus Air Force Base, MS


Time Wind
(mph)
Vis
(mi)
Weather Precip (in) Temperature (F) Relative
Humidity
Wind
Chill
(F)
Heat
Index
(F)
Pressure
Air Dwpt altimeter
(in)
sea level
(mb)
Rmks
2:56 am CDT S 10.4 10.00 Fair -- 74.0 68.2 83% NA NA 29.93 1013.5
1:56 am CDT S 8.1 10.00 Fair -- 71.0 66.9 87% NA NA 29.93 1013.6
12:56 am CDT SE 8.1 10.00 Fair -- 72.0 67.1 84% NA NA 29.91 1012.9
11:56 pm CDT S 6.9 10.00 Fair -- 76.0 66.6 74% NA NA 29.90 1012.5
10:56 pm CDT S 6.9 10.00 Fair -- 72.0 66.7 85% NA NA 29.89 1012.2
9:56 pm CDT S 6.9 10.00 Fair -- 72.0 66.6 83% NA NA 29.86 1011.2
8:56 pm CDT S 5.8 10.00 Fair -- 75.0 66.9 77% NA NA 29.83 1010.2
7:56 pm CDT S 5.8 10.00 Fair -- 80.0 67.1 64% NA 82 29.81 1009.5
6:56 pm CDT S 6.9 10.00 Fair -- 86.0 67.8 55% NA 89 29.81 1009.5
4:56 pm CDT S 11.5 10.00 Fair -- 90.0 67.5 48% NA 94 29.80 1009.1
3:56 pm CDT S 13.8 10.00 Fair -- 89.0 68.7 51% NA 93 29.81 1009.5
2:56 pm CDT S 11.5 10.00 A Few Clouds -- 87.0 67.5 52% NA 90 29.82 1009.8
1:56 pm CDT S 13.8 G 20.7 10.00 A Few Clouds -- 88.0 67.1 51% NA 91 29.83 1010.2
9:56 am CDT S 13.8 10.00 Partly Cloudy -- 83.0 70.3 66% NA 87 29.86 1011.2
8:56 am CDT S 12.7 G 17.3 10.00 Partly Cloudy -- 78.0 70.2 76% NA NA 29.86 1011.2
7:56 am CDT S 11.5 10.00 Partly Cloudy -- 76.0 70.5 83% NA NA 29.84 1010.5
6:56 am CDT S 9.2 9.00 Partly Cloudy -- 73.0 70.0 92% NA NA 29.83 1010.2
4:56 am CDT S 8.1 9.00 A Few Clouds -- 71.0 68.7 92% NA NA 29.78 1008.5
3:56 am CDT S 8.1 10.00 Fair -- 72.0 68.2 88% NA NA 29.78 1008.5
2:56 am CDT S 8.1 10.00 Fair -- 73.0 67.6 84% NA NA 29.76 1007.8

Regional Weather Observation


Columbus Air Force Base, MS (KCBM)

Fair
74.0 F

Columbus/West Point/Starkville, Golden Triangle Regional Airport, MS (KGTR)

Fair
73.0 F

George M Bryan Airport, Starkville, MS (KSTF)

Fair
72.0 F

Tupelo, Tupelo Regional Airport, MS (KTUP)

Fair
74.0 F

Corinth, MS (KCRX)

Mostly Cloudy
72.0 F

Winona-Montgomery County Airport, MS (K5A6)

Fair
73.0 F

Advertise Here


Advertise Here